| time (UTC) | temp F | wind direction | speed knots | gust knots | rain 1hr in | rain 24hr in | rain mn in | humidity % | barometer mb |
| 20260503223016 | 80 | 0 | 1.7 | 6.1 | 0.00 | 0.00 | 0.00 | 43 | 1011.2 |
| 20260503222017 | 79 | 315 | 1.7 | 6.1 | 0.00 | 0.00 | 0.00 | 41 | 1011.2 |
| 20260503221037 | 80 | 338 | 1.7 | 5.2 | 0.00 | 0.00 | 0.00 | 42 | 1011.3 |
| 20260503220037 | 80 | 0.0 | 6.1 | 0.00 | 0.00 | 0.00 | 43 | 1011.5 | |
| 20260503215016 | 80 | 0.0 | 0.0 | 0.00 | 0.00 | 0.00 | 45 | 1011.6 | |
| 20260503214017 | 80 | 0.0 | 0.0 | 0.00 | 0.00 | 0.00 | 44 | 1011.7 | |
| 20260503213017 | 79 | 0.0 | 0.0 | 0.00 | 0.00 | 0.00 | 47 | 1011.8 | |
| 20260503212016 | 79 | 0.0 | 0.0 | 0.00 | 0.00 | 0.00 | 45 | 1011.9 | |
| 20260503211037 | 80 | 0.0 | 0.0 | 0.00 | 0.00 | 0.00 | 48 | 1012.0 | |
| 20260503210017 | 79 | 0.0 | 0.0 | 0.00 | 0.00 | 0.00 | 48 | 1012.1 | |
| 20260503205753 | 79 | 0.0 | 0.0 | 0.00 | 0.00 | 0.00 | 49 | 1012.2 | |
| 20260503204516 | 79 | 0.0 | 0.0 | 0.00 | 0.00 | 0.00 | 48 | 1012.3 | |
| 20260503203517 | 79 | 0.0 | 0.0 | 0.00 | 0.00 | 0.00 | 52 | 1012.4 | |
| 20260503202516 | 79 | 0.0 | 0.0 | 0.00 | 0.00 | 0.00 | 48 | 1012.5 | |
| 20260503201516 | 79 | 0.0 | 0.0 | 0.00 | 0.00 | 0.00 | 51 | 1012.6 | |
| 20260503200517 | 77 | 0.0 | 0.0 | 0.00 | 0.00 | 0.00 | 55 | 1012.7 | |
| 20260503195517 | 77 | 0.0 | 0.0 | 0.00 | 0.00 | 0.00 | 49 | 1012.9 | |
| 20260503194516 | 77 | 0.0 | 0.0 | 0.00 | 0.00 | 0.00 | 55 | 1013.0 | |
| 20260503193505 | 76 | 0.0 | 0.0 | 0.00 | 0.00 | 0.00 | 53 | 1013.1 | |
| 20260503192537 | 75 | 0.0 | 0.0 | 0.00 | 0.00 | 0.00 | 52 | 1013.2 | |
| 20260503191519 | 76 | 0.0 | 0.0 | 0.00 | 0.00 | 0.00 | 54 | 1013.4 | |
| 20260503190519 | 76 | 0.0 | 0.0 | 0.00 | 0.00 | 0.00 | 56 | 1013.4 | |
| 20260503185519 | 76 | 0.0 | 0.0 | 0.00 | 0.00 | 0.00 | 54 | 1013.6 | |
| 20260503184519 | 75 | 0.0 | 0.0 | 0.00 | 0.00 | 0.00 | 55 | 1013.6 | |
| 20260503183520 | 75 | 0.0 | 0.0 | 0.00 | 0.00 | 0.00 | 53 | 1013.8 | |
| 20260503182519 | 73 | 0.0 | 0.0 | 0.00 | 0.00 | 0.00 | 60 | 1013.8 | |
| 20260503181519 | 73 | 0.0 | 0.0 | 0.00 | 0.00 | 0.00 | 58 | 1013.8 | |
| 20260503180519 | 73 | 0.0 | 0.0 | 0.00 | 0.00 | 0.00 | 62 | 1013.9 | |
| 20260503175519 | 73 | 0.0 | 0.0 | 0.00 | 0.00 | 0.00 | 59 | 1014.0 | |
| 20260503174519 | 73 | 0.0 | 0.0 | 0.00 | 0.00 | 0.00 | 59 | 1014.0 | |
| 20260503173519 | 73 | 0.0 | 0.0 | 0.00 | 0.00 | 0.00 | 60 | 1014.0 | |
| 20260503172519 | 72 | 0.0 | 0.0 | 0.00 | 0.00 | 0.00 | 61 | 1014.1 | |
| 20260503171519 | 72 | 0.0 | 0.0 | 0.00 | 0.00 | 0.00 | 61 | 1014.1 | |
| 20260503170518 | 70 | 0.0 | 0.0 | 0.00 | 0.00 | 0.00 | 59 | 1014.1 | |
| 20260503150517 | 66 | 0.0 | 0.0 | 0.00 | 0.00 | 0.00 | 64 | 1014.2 | |
| 20260503130517 | 52 | 0.0 | 0.0 | 0.00 | 0.00 | 0.00 | 83 | 1013.9 | |
| 20260503110517 | 55 | 0.0 | 0.0 | 0.00 | 0.00 | 0.00 | 76 | 1014.1 | |
| 20260503081517 | 62 | 0.0 | 0.9 | 0.00 | 0.00 | 0.00 | 59 | 1014.5 | |
| 20260503080517 | 63 | 0.0 | 0.9 | 0.00 | 0.00 | 0.00 | 58 | 1014.5 | |
| 20260503072517 | 64 | 0 | 0.9 | 3.5 | 0.00 | 0.00 | 0.00 | 56 | 1014.4 |
| 20260503071537 | 64 | 23 | 1.7 | 5.2 | 0.00 | 0.00 | 0.00 | 56 | 1014.4 |
| 20260503070517 | 64 | 0 | 0.9 | 3.5 | 0.00 | 0.00 | 0.00 | 54 | 1014.4 |
| 20260503054517 | 64 | 0 | 1.7 | 4.3 | 0.00 | 0.00 | 0.00 | 54 | 1014.1 |
| 20260503053517 | 64 | 0 | 1.7 | 5.2 | 0.00 | 0.00 | 0.00 | 55 | 1014.1 |
| 20260503052517 | 64 | 0 | 0.9 | 3.5 | 0.00 | 0.00 | 0.00 | 56 | 1014.1 |
| 20260503051537 | 64 | 23 | 1.7 | 7.0 | 0.00 | 0.00 | 0.00 | 58 | 1014.0 |
| 20260503050517 | 63 | 0 | 2.6 | 6.1 | 0.00 | 0.00 | 0.00 | 60 | 1013.9 |
| 20260503045517 | 63 | 0 | 1.7 | 5.2 | 0.00 | 0.00 | 0.00 | 62 | 1013.9 |
| 20260503044517 | 62 | 0 | 0.9 | 4.3 | 0.00 | 0.00 | 0.00 | 64 | 1013.9 |
| 20260503043517 | 62 | 0 | 0.9 | 3.5 | 0.00 | 0.00 | 0.00 | 66 | 1013.7 |
| 20260503042537 | 62 | 0.0 | 1.7 | 0.00 | 0.00 | 0.00 | 67 | 1013.7 | |
| 20260503041517 | 62 | 0.0 | 0.9 | 0.00 | 0.00 | 0.00 | 67 | 1013.6 | |
| 20260503040517 | 63 | 0.0 | 0.0 | 0.00 | 0.00 | 0.00 | 67 | 1013.4 | |
| 20260503035517 | 63 | 0.0 | 0.9 | 0.00 | 0.00 | 0.00 | 66 | 1013.3 | |
| 20260503034517 | 63 | 0.0 | 1.7 | 0.00 | 0.00 | 0.00 | 66 | 1013.2 | |
| 20260503033517 | 63 | 0.0 | 0.9 | 0.00 | 0.00 | 0.00 | 65 | 1013.0 | |
| 20260503032517 | 64 | 0.0 | 2.6 | 0.00 | 0.00 | 0.00 | 64 | 1013.0 | |
| 20260503031517 | 64 | 0.0 | 0.9 | 0.00 | 0.00 | 0.00 | 63 | 1012.8 | |
| 20260503030517 | 65 | 293 | 0.9 | 3.5 | 0.00 | 0.00 | 0.00 | 62 | 1012.8 |
| 20260503025517 | 65 | 0.0 | 4.3 | 0.00 | 0.00 | 0.00 | 61 | 1012.7 | |
| 20260503024517 | 66 | 0.0 | 2.6 | 0.00 | 0.00 | 0.00 | 59 | 1012.7 | |
| 20260503023517 | 67 | 315 | 0.9 | 3.5 | 0.00 | 0.00 | 0.00 | 58 | 1012.6 |
| 20260503022517 | 67 | 45 | 0.9 | 4.3 | 0.00 | 0.00 | 0.00 | 58 | 1012.5 |
| 20260503021537 | 68 | 0 | 0.9 | 4.3 | 0.00 | 0.00 | 0.00 | 57 | 1012.7 |
| 20260503020517 | 68 | 23 | 0.9 | 4.3 | 0.00 | 0.00 | 0.00 | 55 | 1012.6 |
| 20260503015517 | 69 | 0 | 1.7 | 5.2 | 0.00 | 0.00 | 0.00 | 55 | 1012.6 |
| 20260503014517 | 69 | 315 | 1.7 | 5.2 | 0.00 | 0.00 | 0.00 | 56 | 1012.6 |
| 20260503013517 | 69 | 338 | 1.7 | 5.2 | 0.00 | 0.00 | 0.00 | 56 | 1012.6 |
| 20260503012517 | 69 | 293 | 2.6 | 11.3 | 0.00 | 0.00 | 0.00 | 54 | 1012.6 |
| 20260503011517 | 70 | 315 | 0.9 | 3.5 | 0.00 | 0.00 | 0.00 | 55 | 1012.8 |
| 20260503010517 | 70 | 315 | 1.7 | 5.2 | 0.00 | 0.00 | 0.00 | 54 | 1012.8 |
| 20260503005537 | 71 | 293 | 1.7 | 6.1 | 0.00 | 0.00 | 0.00 | 53 | 1012.9 |
| 20260503004517 | 71 | 293 | 2.6 | 7.8 | 0.00 | 0.00 | 0.00 | 53 | 1012.9 |
| 20260503003517 | 72 | 293 | 1.7 | 6.1 | 0.00 | 0.00 | 0.00 | 52 | 1013.1 |
| 20260503002537 | 72 | 293 | 2.6 | 10.4 | 0.00 | 0.00 | 0.00 | 51 | 1013.0 |
| 20260503001517 | 72 | 315 | 3.5 | 11.3 | 0.00 | 0.00 | 0.00 | 51 | 1013.0 |
| 20260503000517 | 72 | 293 | 2.6 | 7.8 | 0.00 | 0.00 | 0.00 | 51 | 1013.1 |
| 20260502235537 | 74 | 293 | 2.6 | 7.0 | 0.00 | 0.00 | 0.00 | 50 | 1013.2 |
| 20260502234537 | 73 | 315 | 0.9 | 4.3 | 0.00 | 0.00 | 0.00 | 52 | 1013.3 |
| 20260502233537 | 73 | 293 | 2.6 | 9.6 | 0.00 | 0.00 | 0.00 | 51 | 1013.5 |
| 20260502232517 | 73 | 293 | 2.6 | 6.1 | 0.00 | 0.00 | 0.00 | 50 | 1013.7 |
| 20260502231517 | 73 | 293 | 3.5 | 9.6 | 0.00 | 0.00 | 0.00 | 50 | 1013.8 |
| 20260502230537 | 73 | 293 | 3.5 | 10.4 | 0.00 | 0.00 | 0.00 | 51 | 1013.9 |
| 20260502225517 | 73 | 315 | 3.5 | 7.0 | 0.00 | 0.00 | 0.00 | 50 | 1014.1 |
| 20260502224515 | 73 | 315 | 3.5 | 13.0 | 0.00 | 0.00 | 0.00 | 53 | 1014.3 |